When you browse on this site, cookies collect data to enhance your experience and personalize the content and advertising you see.
Visit our Privacy Policy to learn more. By continuing to use the site, you agree to this use of cookies and data.
  • In Norway
  • List of Countries
  • For 7 days
  • Water Temperature
  • Satellite Maps
  • Weather Map
  • Weather Widgets
  • user-avatar
    Login

    Hourly Weather Shkoder

    Today, 20 January, Sunday

    Time Temperature Precipitation Wind Pressure Humidity
    00:00 +6°C° 0.4 mm 2 mps 737 mmHg 82%
    01:00 +6°C° 0 mm 2 mps 737 mmHg 84%
    02:00 +6°C° 1.5 mm 2 mps 737 mmHg 85%
    03:00 +7°C° 1.5 mm 1 mps 737 mmHg 87%
    04:00 +6°C° 1.5 mm 1 mps 737 mmHg 89%
    05:00 +6°C° 2.4 mm 1 mps 737 mmHg 89%
    06:00 +6°C° 2.4 mm 1 mps 737 mmHg 90%
    07:00 +6°C° 0 mm 1 mps 737 mmHg 92%
    08:00 +7°C° 0.2 mm 1 mps 737 mmHg 92%
    09:00 +7°C° 0.2 mm 1 mps 737 mmHg 91%
    10:00 +8°C° 0.2 mm 1 mps 737 mmHg 91%
    11:00 +9°C° 0.1 mm 1 mps 737 mmHg 89%
    12:00 +9°C° 0.1 mm 1 mps 737 mmHg 87%
    13:00 +10°C° 0 mm 1 mps 737 mmHg 85%
    14:00 +10°C° 0.1 mm 1 mps 737 mmHg 86%
    15:00 +9°C° 0.1 mm 1 mps 737 mmHg 86%
    16:00 +9°C° 0.1 mm 1 mps 738 mmHg 87%
    17:00 +8°C° 0 mm 1 mps 738 mmHg 87%
    18:00 +7°C° 0 mm 1 mps 738 mmHg 87%
    19:00 +6°C° 0 mm 2 mps 738 mmHg 87%
    20:00 +5°C° 0 mm 2 mps 738 mmHg 86%
    21:00 +5°C° 0 mm 2 mps 738 mmHg 84%
    22:00 +5°C° 0 mm 2 mps 739 mmHg 83%
    23:00 +5°C° 0 mm 2 mps 739 mmHg 82%

    Tomorrow, 21 January, Monday

    Time Temperature Precipitation Wind Pressure Humidity
    00:00 +5°C° 0 mm 2 mps 739 mmHg 81%
    01:00 +5°C° 0 mm 2 mps 739 mmHg 80%
    02:00 +5°C° 0 mm 2 mps 739 mmHg 80%
    03:00 +5°C° 0 mm 2 mps 739 mmHg 79%
    04:00 +4°C° 0 mm 2 mps 739 mmHg 79%
    05:00 +4°C° 0 mm 2 mps 739 mmHg 79%
    06:00 +4°C° 0 mm 2 mps 739 mmHg 78%
    07:00 +4°C° 0 mm 2 mps 739 mmHg 78%
    08:00 +6°C° 0 mm 2 mps 739 mmHg 76%
    09:00 +7°C° 0 mm 2 mps 739 mmHg 74%
    10:00 +8°C° 0 mm 2 mps 740 mmHg 72%
    11:00 +9°C° 0 mm 2 mps 739 mmHg 70%
    12:00 +10°C° 0 mm 2 mps 739 mmHg 68%
    13:00 +10°C° 0 mm 2 mps 739 mmHg 65%
    14:00 +10°C° 0 mm 2 mps 739 mmHg 69%
    15:00 +9°C° 0 mm 2 mps 739 mmHg 73%
    16:00 +8°C° 0 mm 2 mps 739 mmHg 76%
    17:00 +7°C° 0 mm 2 mps 739 mmHg 78%
    18:00 +7°C° 0 mm 2 mps 739 mmHg 79%
    19:00 +5°C° 0 mm 3 mps 739 mmHg 80%
    20:00 +5°C° 0.1 mm 3 mps 739 mmHg 80%
    21:00 +5°C° 0.1 mm 3 mps 739 mmHg 79%
    22:00 +5°C° 0.1 mm 3 mps 739 mmHg 79%
    23:00 +5°C° 0.1 mm 3 mps 738 mmHg 79%

    Day after tomorrow, 22 January, Tuesday

    Time Temperature Precipitation Wind Pressure Humidity
    00:00 +5°C° 0.1 mm 3 mps 738 mmHg 80%
    01:00 +4°C° 0.1 mm 3 mps 738 mmHg 80%
    02:00 +4°C° 0.1 mm 3 mps 738 mmHg 80%
    03:00 +4°C° 0.1 mm 3 mps 737 mmHg 80%
    04:00 +4°C° 0.1 mm 3 mps 737 mmHg 80%
    05:00 +4°C° 0.3 mm 3 mps 736 mmHg 80%
    06:00 +4°C° 0.3 mm 3 mps 736 mmHg 80%
    07:00 +4°C° 0.3 mm 3 mps 736 mmHg 81%
    08:00 +5°C° 0.5 mm 3 mps 735 mmHg 81%
    09:00 +5°C° 0.5 mm 3 mps 735 mmHg 81%
    10:00 +5°C° 0.5 mm 3 mps 735 mmHg 81%
    11:00 +5°C° 0.9 mm 3 mps 734 mmHg 83%
    12:00 +6°C° 0.9 mm 2 mps 733 mmHg 85%
    13:00 +6°C° 0.9 mm 2 mps 733 mmHg 86%
    14:00 +6°C° 0.4 mm 2 mps 732 mmHg 86%
    15:00 +7°C° 0.4 mm 2 mps 732 mmHg 85%
    16:00 +7°C° 0.4 mm 2 mps 731 mmHg 84%
    17:00 +7°C° 0.4 mm 2 mps 731 mmHg 85%
    18:00 +7°C° 0.4 mm 2 mps 730 mmHg 85%
    19:00 +7°C° 0.4 mm 2 mps 730 mmHg 86%
    20:00 +6°C° 1.2 mm 2 mps 730 mmHg 87%
    21:00 +6°C° 1.2 mm 2 mps 729 mmHg 88%
    22:00 +6°C° 1.2 mm 2 mps 729 mmHg 89%
    23:00 +6°C° 0.7 mm 2 mps 729 mmHg 88%

    23 January, Wednesday

    Time Temperature Precipitation Wind Pressure Humidity
    00:00 +6°C° 0.7 mm 2 mps 728 mmHg 87%
    01:00 +7°C° 0.7 mm 2 mps 728 mmHg 86%
    02:00 +7°C° 2.1 mm 2 mps 728 mmHg 88%
    03:00 +7°C° 2.1 mm 3 mps 727 mmHg 90%
    04:00 +7°C° 2.1 mm 3 mps 727 mmHg 92%
    05:00 +7°C° 2 mm 3 mps 727 mmHg 91%
    06:00 +6°C° 2 mm 4 mps 727 mmHg 91%
    07:00 +6°C° 2 mm 4 mps 727 mmHg 90%
    08:00 +6°C° 2.6 mm 5 mps 728 mmHg 89%
    09:00 +6°C° 2.6 mm 5 mps 728 mmHg 89%
    10:00 +5°C° 2.6 mm 6 mps 728 mmHg 88%
    11:00 +6°C° 2.2 mm 5 mps 728 mmHg 87%
    12:00 +6°C° 2.2 mm 5 mps 728 mmHg 86%
    13:00 +6°C° 2.2 mm 5 mps 728 mmHg 85%
    14:00 +6°C° 1.1 mm 4 mps 728 mmHg 85%
    15:00 +7°C° 1.1 mm 3 mps 728 mmHg 86%
    16:00 +7°C° 1.1 mm 3 mps 728 mmHg 86%
    17:00 +7°C° 0.2 mm 2 mps 728 mmHg 86%
    18:00 +6°C° 0.2 mm 2 mps 729 mmHg 86%
    19:00 +7°C° 0.2 mm 1 mps 729 mmHg 86%
    20:00 +5°C° 0 mm 2 mps 729 mmHg 85%
    21:00 +5°C° 0 mm 2 mps 729 mmHg 83%
    22:00 +5°C° 0 mm 2 mps 729 mmHg 82%
    23:00 +4°C° 0 mm 3 mps 729 mmHg 80%

    24 January, Thursday

    Time Temperature Precipitation Wind Pressure Humidity
    00:00 +4°C° 0 mm 3 mps 728 mmHg 78%
    01:00 +4°C° 0 mm 3 mps 728 mmHg 76%
    02:00 +4°C° 0 mm 3 mps 727 mmHg 75%
    03:00 +4°C° 0 mm 3 mps 727 mmHg 73%
    04:00 +4°C° 0 mm 3 mps 726 mmHg 72%
    05:00 +4°C° 0 mm 3 mps 726 mmHg 72%
    06:00 +4°C° 0 mm 3 mps 726 mmHg 72%
    07:00 +3°C° 0 mm 4 mps 726 mmHg 72%
    08:00 +4°C° 0.2 mm 4 mps 726 mmHg 74%
    09:00 +5°C° 0.2 mm 3 mps 726 mmHg 76%
    10:00 +7°C° 0.2 mm 3 mps 726 mmHg 78%
    11:00 +7°C° 0.1 mm 3 mps 726 mmHg 76%
    12:00 +8°C° 0.1 mm 3 mps 725 mmHg 74%
    13:00 +9°C° 0.1 mm 3 mps 725 mmHg 72%
    14:00 +9°C° 0.1 mm 3 mps 725 mmHg 75%
    15:00 +8°C° 0.1 mm 3 mps 725 mmHg 77%
    16:00 +7°C° 0.1 mm 2 mps 725 mmHg 79%
    17:00 +7°C° 0.4 mm 2 mps 726 mmHg 81%
    18:00 +5°C° 0.4 mm 3 mps 726 mmHg 82%
    19:00 +5°C° 0.4 mm 3 mps 726 mmHg 83%
    20:00 +5°C° 0.4 mm 3 mps 727 mmHg 82%
    21:00 +5°C° 0.4 mm 3 mps 727 mmHg 82%
    22:00 +5°C° 0.4 mm 3 mps 727 mmHg 81%
    23:00 +5°C° 0.1 mm 3 mps 727 mmHg 81%

    25 January, Friday

    Time Temperature Precipitation Wind Pressure Humidity
    00:00 +5°C° 0.1 mm 3 mps 727 mmHg 80%
    01:00 +4°C° 0.1 mm 3 mps 726 mmHg 80%
    02:00 +4°C° 0 mm 4 mps 726 mmHg 79%
    03:00 +4°C° 0 mm 4 mps 726 mmHg 78%
    04:00 +4°C° 0 mm 4 mps 726 mmHg 77%
    05:00 +4°C° 0 mm 4 mps 726 mmHg 76%
    06:00 +4°C° 0 mm 4 mps 726 mmHg 75%
    07:00 +4°C° 0 mm 4 mps 726 mmHg 74%
    08:00 +4°C° 0 mm 3 mps 727 mmHg 74%
    09:00 +5°C° 0 mm 3 mps 727 mmHg 74%
    10:00 +7°C° 0 mm 2 mps 728 mmHg 73%
    11:00 +7°C° 0 mm 2 mps 728 mmHg 72%
    12:00 +8°C° 0 mm 2 mps 727 mmHg 70%
    13:00 +8°C° 0 mm 2 mps 727 mmHg 68%
    14:00 +8°C° 0 mm 2 mps 727 mmHg 70%
    15:00 +7°C° 0 mm 2 mps 727 mmHg 72%
    16:00 +8°C° 0 mm 1 mps 727 mmHg 74%
    17:00 +6°C° 0 mm 2 mps 727 mmHg 75%
    18:00 +6°C° 0 mm 2 mps 728 mmHg 75%
    19:00 +4°C° 0 mm 3 mps 728 mmHg 76%
    20:00 +4°C° 0 mm 3 mps 728 mmHg 75%
    21:00 +3°C° 0 mm 3 mps 729 mmHg 75%
    22:00 +3°C° 0 mm 3 mps 729 mmHg 74%
    23:00 +3°C° 0 mm 3 mps 729 mmHg 74%
    Show more